Location: Melbourne
(37.8170°S, 144.9670°E)
Time: 23:36:46
(UTC+10:00)

CZ-3 R/B - Visible Passes

Search period start: 18 April 2014 00:00
Search period end: 28 April 2014 00:00
Orbit: 208 x 15372 km, 28.5° (Epoch: 17 April)

Date Brightness Start Highest point End Pass type
(mag) Time Alt. Az. Time Alt. Az. Time Alt. Az.
18 Apr 5.5 00:13:20 27° ENE 00:13:20 27° ENE 00:34:35 10° E visible
18 Apr 5.1 04:53:07 27° WNW 05:16:58 48° NNW 07:32:51 10° NNE visible
18 Apr 5.8 23:32:07 16° E 23:32:07 16° E 23:38:33 10° E visible
19 Apr 5.0 04:11:50 39° WNW 04:26:25 51° NNW 06:39:11 10° NNE visible
20 Apr 4.8 03:30:09 50° NW 03:36:50 54° NNW 05:40:47 10° NE visible
21 Apr 4.8 02:48:03 56° N 02:48:13 56° N 04:36:41 10° NE visible
22 Apr 5.0 02:05:33 53° NNE 02:05:33 53° NNE 03:27:09 10° NE visible
23 Apr 5.2 01:22:39 43° NE 01:22:39 43° NE 02:15:59 10° ENE visible
23 Apr 5.7 06:02:27 10° W 06:42:13 32° NW 08:43:04 10° N visible
24 Apr 5.5 00:39:21 31° ENE 00:39:21 31° ENE 01:08:36 10° ENE visible
24 Apr 5.5 05:18:39 19° WNW 05:47:32 37° NNW 07:52:50 10° NNE visible
24 Apr 5.8 23:55:39 19° ENE 23:55:39 19° ENE 00:06:57 10° ENE visible
25 Apr 5.3 04:34:52 30° WNW 04:53:17 41° NNW 06:58:02 10° NNE visible
26 Apr 5.1 03:50:41 40° NW 03:59:58 45° NNW 05:58:17 10° NNE visible
27 Apr 5.1 03:06:05 47° NNW 03:07:46 48° NNW 04:52:55 10° NE visible
